Wind_Speed
10 7 7 8 10 9 10 11 11 12 14 15 16 16 15 14 13 13 13 12 11 11 12 11 9 9 8 7 7 9 10 8 7 7 7 7 8 9 9 11 16 22 26 28 27 27 26 24 23 23 22 22 22 22 20 18 17 15 14 13 12 12
6 5 6 8 9 9 10 11 11 11 13 15 16 15 13 13 13 13 12 11 11 11 11 10 11 14 12 9 8 9 8 7 7 7 7 7 7 8 9 9 10 14 20 26 27 27 27 26 25 23 23 23 22 23 22 21 20 17 17 16 16 15
4 5 7 8 8 9 11 11 10 11 13 14 14 13 13 13 13 13 12 11 10 9 9 10 12 16 14 10 8 7 7 7 7 7 7 8 8 8 9 9 9 10 14 20 25 27 27 26 25 24 23 23 23 23 23 22 21 19 18 19 18 17
4 6 8 8 8 9 10 10 10 12 11 12 13 14 14 15 14 13 12 11 9 8 9 11 12 15 14 11 9 8 7 7 7 7 8 8 8 8 8 9 10 10 11 15 21 26 27 27 26 25 23 22 22 23 24 23 22 20 20 20 20 19
3 5 6 7 9 10 9 9 10 9 8 11 15 15 15 15 13 11 10 9 9 11 14 14 14 16 16 13 12 10 8 7 7 8 9 9 8 8 8 9 10 11 12 13 16 21 25 27 26 25 23 21 20 22 25 24 22 21 21 22 22 21
4 6 7 8 10 11 10 8 7 7 9 13 15 16 15 12 9 8 9 11 13 14 13 12 13 16 17 15 13 10 9 9 8 8 9 9 9 8 8 9 9 11 13 14 15 17 22 25 25 24 22 19 20 21 21 22 21 21 22 23 23 22
5 7 8 9 10 11 9 5 4 6 9 11 13 15 14 11 10 10 10 9 9 9 9 10 14 16 17 16 13 11 9 9 8 9 10 11 10 10 9 9 9 10 11 13 14 16 18 22 23 22 21 20 21 19 18 20 20 19 21 23 23 23
6 7 8 10 10 10 6 3 3 4 7 10 10 11 11 11 11 9 9 7 6 7 9 11 14 15 15 14 12 10 9 8 9 10 12 12 12 11 10 9 9 9 9 12 14 15 16 19 21 20 21 20 19 19 19 21 21 19 20 21 21 22
8 9 10 10 10 8 4 5 6 7 9 11 10 10 11 11 10 8 8 7 7 8 9 11 13 13 13 12 10 9 8 8 9 10 10 11 11 10 10 9 8 7 6 9 13 14 15 18 20 19 19 20 20 22 22 20 19 19 19 20 20 20
7 9 10 10 9 8 7 8 10 10 12 13 12 12 11 10 9 8 8 8 8 9 8 9 10 10 10 9 8 8 8 8 9 9 8 9 10 9 9 9 8 7 6 8 11 12 14 18 21 20 19 20 22 20 17 16 18 18 18 18 19 20
6 10 12 11 9 8 10 11 12 11 12 13 13 12 11 10 9 9 10 10 9 8 7 7 6 7 8 7 7 8 8 8 8 9 9 9 10 9 9 10 10 9 8 8 9 11 14 18 21 20 17 18 18 13 12 14 16 17 16 16 18 19
7 11 13 11 8 9 11 13 13 12 12 12 12 12 11 10 9 9 10 10 10 9 8 7 6 6 7 6 7 7 7 7 7 8 9 9 11 11 11 11 11 10 9 9 9 10 13 15 18 18 17 16 14 13 12 14 15 15 15 15 16 17
9 11 12 10 10 12 14 15 15 13 12 11 10 10 10 9 9 9 10 10 10 9 9 7 6 7 7 6 7 7 7 7 7 8 9 10 11 12 12 11 11 11 11 9 9 10 10 11 14 16 16 15 12 12 13 15 18 16 15 16 16 17
10 11 12 11 14 16 15 15 14 12 11 10 8 8 8 7 7 7 8 9 8 8 7 6 5 6 7 7 7 7 7 7 8 8 9 9 10 10 10 10 10 10 11 9 9 9 9 9 11 13 13 12 10 11 13 14 15 15 16 17 17 18
11 11 12 12 15 17 15 14 13 11 10 9 8 8 7 6 5 5 5 5 7 7 6 5 5 6 6 6 6 6 7 7 7 8 8 8 8 10 10 9 10 10 10 9 8 8 7 8 9 10 11 11 8 8 12 13 11 12 14 14 14 14
11 10 12 13 16 16 15 13 12 10 9 9 9 8 7 5 4 3 2 2 3 4 4 4 5 6 7 6 5 5 6 6 6 7 7 8 9 10 10 10 10 10 10 9 8 8 7 7 9 9 10 11 10 9 10 12 11 11 12 12 11 11
12 11 12 14 17 17 16 14 13 12 11 11 10 8 8 9 8 8 7 6 5 4 4 4 6 7 8 7 4 4 3 3 5 7 6 7 9 10 10 10 10 11 10 10 9 9 8 7 8 9 7 8 10 11 10 10 11 12 13 11 10 9
14 13 13 15 17 18 18 17 15 14 13 11 10 11 12 12 12 11 11 10 10 10 9 7 7 8 9 7 5 5 3 2 5 6 5 6 8 9 10 11 11 11 12 11 11 10 9 9 9 9 9 8 8 11 10 10 12 13 13 10 9 8
15 15 15 15 16 16 17 17 15 15 14 12 11 12 12 11 11 11 11 10 11 11 11 9 7 6 7 7 6 6 4 3 4 4 5 6 8 9 10 10 10 11 12 13 13 11 10 11 10 10 10 10 9 11 11 13 14 14 12 10 9 9
17 18 17 17 15 14 15 16 15 15 15 13 12 12 11 9 9 9 9 9 9 10 10 10 8 6 5 5 6 5 4 4 4 4 5 6 8 9 10 9 10 11 11 12 12 11 10 11 10 9 9 10 10 12 14 14 11 9 8 9 10 10
19 20 18 18 17 15 15 16 16 17 15 14 12 11 10 8 7 8 7 7 8 9 10 10 9 7 6 4 4 5 5 6 6 6 6 6 8 9 9 9 10 11 11 11 11 10 10 10 10 9 10 11 11 12 12 9 6 6 7 9 9 9
20 21 20 20 21 19 19 17 18 18 16 15 12 10 8 7 6 5 4 5 6 9 10 10 9 8 7 5 4 5 6 7 7 8 8 8 8 9 9 9 10 11 11 11 10 10 10 10 10 11 11 12 12 12 10 8 8 7 7 8 8 8
20 21 20 20 20 20 19 18 20 20 17 15 12 9 7 6 5 3 3 3 4 7 8 8 8 8 8 7 4 4 5 7 7 7 7 8 8 9 10 10 10 11 11 11 11 11 10 10 11 12 12 12 13 12 10 10 10 7 7 9 8 8
22 21 19 19 18 18 17 19 21 20 17 15 12 9 7 5 4 3 3 3 3 4 6 6 7 7 7 6 4 3 4 5 6 7 7 7 7 8 9 10 10 10 11 12 12 12 11 11 11 12 12 13 13 11 9 9 9 6 7 8 7 7
23 21 19 19 18 16 16 19 20 19 17 14 11 9 6 5 3 3 2 2 2 2 3 4 5 5 5 5 3 1 4 6 6 6 7 7 8 9 9 9 10 11 11 12 13 13 12 12 12 12 13 13 11 10 8 8 8 7 8 9 8 7
22 22 21 20 18 17 17 19 20 17 14 12 9 7 6 4 3 2 1 1 1 3 4 5 5 4 4 4 3 1 3 5 7 7 7 8 9 10 10 10 11 11 11 12 13 13 13 13 13 13 13 12 10 9 8 7 7 8 8 10 10 9
20 19 20 20 18 19 20 20 19 16 12 11 8 6 6 4 3 2 1 1 2 3 4 5 6 5 4 2 2 1 2 5 6 7 8 9 10 10 10 10 11 12 12 12 13 13 13 12 12 12 12 11 11 10 9 8 9 8 8 9 10 10
16 17 19 20 20 21 20 18 16 13 10 10 9 7 7 5 4 3 1 0 2 3 3 4 5 6 6 3 1 0 1 3 4 5 8 10 10 10 9 9 11 12 12 13 13 13 13 11 10 11 11 11 11 11 11 10 10 9 8 9 10 11
17 17 18 18 20 22 19 16 15 12 9 9 8 8 7 5 4 3 2 1 2 3 3 5 6 7 8 6 3 2 1 2 3 4 6 9 10 8 8 9 11 11 11 12 13 13 12 10 10 10 9 9 10 11 12 12 12 11 10 9 10 11
14 14 15 16 19 20 18 16 15 13 11 9 8 8 7 6 5 4 2 2 3 4 5 7 8 9 9 6 3 3 2 2 2 4 5 8 9 8 8 10 10 10 10 11 12 12 12 11 10 8 7 7 8 10 12 12 12 11 10 10 11 11
11 11 13 14 16 18 17 16 15 14 11 8 9 9 8 7 5 4 4 3 4 6 9 10 10 10 9 5 2 2 3 3 3 4 4 6 9 8 9 11 10 10 11 10 11 12 12 11 10 9 8 7 8 10 12 12 11 11 10 10 10 10
13 13 14 15 16 18 18 17 16 14 10 8 10 11 9 8 6 6 5 5 6 8 11 12 12 10 8 4 1 0 1 2 3 4 4 5 8 10 10 11 10 10 10 9 11 12 12 12 11 10 10 9 9 10 12 11 10 10 10 10 8 8
13 13 14 15 16 18 19 18 15 14 12 9 9 11 10 9 8 7 7 8 8 10 12 12 11 8 5 3 1 0 0 2 3 4 4 4 8 10 10 8 7 8 8 7 9 11 11 12 10 9 10 10 10 9 9 9 10 11 11 10 8 7
12 11 14 16 17 18 18 17 16 17 16 11 9 11 11 9 9 9 9 10 11 12 12 9 6 4 3 2 1 1 1 2 3 4 4 4 7 8 8 7 6 6 6 6 7 8 9 9 9 8 9 9 9 9 8 8 9 10 10 10 9 9
12 10 13 15 17 17 17 17 18 20 18 13 10 12 11 10 10 10 11 12 12 11 8 5 2 2 3 3 1 1 1 3 4 4 3 2 4 6 7 7 6 4 4 5 5 6 7 8 8 8 7 8 8 8 9 11 11 11 10 9 10 11
14 12 13 14 16 17 17 17 19 20 19 15 12 12 11 10 10 11 12 12 10 7 4 2 1 2 3 3 2 2 2 3 4 3 2 2 4 6 6 6 5 3 3 3 4 5 5 6 6 7 7 8 8 8 9 12 13 12 11 10 11 9
17 15 15 15 16 16 16 17 19 20 19 16 14 12 11 10 10 10 11 10 8 5 4 3 2 2 3 4 3 2 2 3 3 3 3 4 6 6 6 5 6 5 4 4 4 5 6 5 5 7 9 10 10 10 9 10 12 12 12 12 11 8
Wind_Direction
284 275 271 261 254 257 256 250 238 228 225 217 211 209 206 204 199 194 190 187 189 181 171 165 162 173 185 193 199 208 221 225 222 226 232 238 240 238 231 225 222 218 217 216 217 218 218 221 223 224 226 228 230 233 232 231 232 235 239 241 239 236
288 261 253 249 244 252 251 245 234 225 220 213 213 211 205 203 195 189 188 188 195 192 189 193 201 205 199 196 211 221 226 227 227 232 238 243 246 246 244 238 231 224 219 218 218 218 220 222 224 226 228 230 233 236 236 235 236 237 240 245 247 245
280 236 238 239 241 249 246 244 230 217 214 210 211 209 203 196 187 183 186 192 202 207 210 218 227 222 206 197 216 224 222 223 226 234 240 241 242 245 248 247 243 234 224 219 218 218 220 222 224 226 228 230 233 237 238 237 238 238 241 245 248 250
263 233 236 235 240 245 240 235 222 214 213 210 205 201 196 187 183 185 189 196 205 220 240 246 242 226 209 203 213 214 213 219 224 230 234 237 239 241 245 248 245 238 229 222 218 218 219 221 224 225 226 229 232 238 239 238 239 239 241 244 247 249
249 226 229 227 233 239 232 221 220 221 217 210 201 196 191 184 180 184 193 212 233 250 259 253 235 220 208 203 210 210 209 213 219 228 232 234 235 236 237 241 242 237 231 225 220 218 219 220 222 224 225 227 230 236 240 239 240 241 242 245 247 249
217 224 227 224 227 232 229 220 222 226 215 201 193 191 190 186 188 208 233 246 250 249 247 233 214 208 203 204 212 213 218 220 222 229 232 233 233 236 240 241 242 238 232 226 223 220 219 220 222 224 224 225 227 231 236 238 239 241 243 246 249 251
230 231 226 220 218 221 225 219 215 216 202 185 185 194 196 202 217 235 245 241 232 224 219 211 204 203 202 208 214 216 226 232 234 233 233 237 237 240 246 247 244 241 235 227 225 224 221 220 222 224 221 221 225 229 236 241 238 236 240 245 250 253
228 211 207 210 210 214 218 188 179 189 173 169 184 194 194 203 211 214 221 215 197 197 203 203 204 206 207 214 219 222 232 242 250 246 243 245 239 239 246 250 245 241 236 226 224 225 224 221 219 220 221 223 228 232 236 241 239 234 238 244 249 253
199 193 201 210 204 193 164 141 153 152 150 158 167 166 170 181 187 193 208 209 192 190 195 198 206 212 215 224 231 234 241 249 252 248 246 241 233 234 242 244 242 237 226 220 221 222 228 227 219 215 217 219 224 226 225 232 241 240 241 245 249 253
196 199 203 205 191 156 134 144 149 143 143 150 154 151 156 167 175 187 199 204 198 194 194 199 208 216 224 235 242 242 246 251 246 240 238 229 225 230 235 230 221 216 207 208 213 216 227 230 225 219 216 219 222 223 221 229 244 246 245 248 251 255
213 202 197 192 178 147 139 143 140 135 135 143 150 148 152 166 179 188 195 204 209 210 208 209 217 229 241 250 252 247 246 252 247 239 234 225 224 225 229 226 210 205 208 211 209 213 224 230 232 228 225 231 236 235 224 224 237 243 244 247 250 252
212 196 189 179 160 144 141 136 131 134 139 145 151 153 162 175 185 193 199 205 211 217 222 226 237 245 252 257 253 245 243 248 246 240 234 223 220 223 229 227 213 207 214 216 212 217 227 233 236 234 230 233 244 247 230 219 223 229 232 239 243 247
206 192 179 163 144 142 142 135 134 142 151 154 156 163 172 179 189 199 205 212 219 226 229 229 234 236 238 244 243 234 232 237 235 234 233 223 217 221 227 224 215 212 217 216 214 224 234 237 238 240 238 228 232 247 239 225 218 213 220 233 240 243
199 185 171 158 141 139 141 138 138 143 149 153 160 171 179 187 199 208 212 222 234 240 238 230 224 225 225 228 232 227 225 227 226 225 228 227 218 215 218 219 217 217 219 216 214 226 236 239 239 245 245 228 224 242 240 230 220 214 219 230 238 242
195 182 168 155 139 136 136 137 138 137 143 152 161 169 179 192 203 216 225 234 241 240 232 220 214 222 221 216 222 229 233 232 225 221 224 226 217 208 207 208 212 216 217 218 217 221 232 243 244 243 239 226 221 237 232 221 213 210 215 223 232 237
190 182 165 148 139 137 134 133 135 137 141 148 154 160 164 162 151 154 174 201 225 222 211 206 204 214 218 215 221 228 237 236 221 217 221 220 213 204 201 201 204 210 214 219 218 212 219 236 244 243 238 229 223 225 223 210 202 203 207 216 224 228
179 175 160 143 140 139 138 136 138 144 144 141 142 142 130 116 106 101 96 92 91 95 109 142 172 189 201 207 211 205 218 233 216 214 219 217 212 205 203 204 205 210 217 222 220 213 209 221 244 248 250 248 219 209 218 208 201 206 206 208 209 214
169 168 158 145 141 141 143 144 145 149 146 138 133 128 118 105 96 88 81 77 77 78 83 104 142 167 177 183 182 180 191 217 207 208 215 213 208 205 206 209 210 214 222 228 228 220 203 208 235 237 242 255 212 196 213 213 205 204 202 201 198 204
165 166 159 148 145 145 147 148 148 146 141 137 131 126 118 105 95 85 78 73 70 73 80 94 110 132 157 170 172 177 187 189 189 197 204 206 205 205 208 211 213 216 222 225 227 223 207 206 223 227 235 244 218 206 213 208 206 200 194 203 208 211
163 161 158 152 152 153 151 148 144 140 137 135 130 122 115 106 96 84 78 74 72 74 80 92 95 95 125 162 172 174 189 194 189 186 190 205 211 211 212 212 215 219 219 217 219 220 210 207 218 227 234 236 229 227 217 206 206 200 197 216 219 218
162 158 158 159 161 159 152 147 144 143 140 135 130 124 119 108 94 81 77 78 80 84 86 91 94 89 97 131 165 173 192 203 196 189 191 205 215 218 219 217 220 223 221 215 211 206 200 204 216 223 224 230 233 233 225 217 228 226 222 232 234 231
167 164 164 165 168 164 157 153 150 149 146 141 137 131 123 107 93 85 82 84 85 89 92 93 92 88 92 109 148 175 190 201 201 199 200 204 210 217 220 221 223 225 225 220 210 203 198 199 212 216 213 220 227 226 222 226 236 231 223 231 235 232
172 174 174 174 174 169 164 160 156 154 151 150 147 138 129 112 97 83 73 71 71 81 89 92 91 89 92 106 136 176 191 199 204 207 206 203 204 208 213 218 220 221 224 224 216 211 205 202 212 216 212 214 221 225 220 223 230 221 211 221 220 213
176 181 183 182 177 173 171 165 159 160 159 159 156 146 138 119 94 68 56 54 52 65 78 87 89 88 88 95 117 165 206 208 209 211 208 202 201 203 205 210 217 219 219 222 223 219 212 210 214 214 214 215 217 223 225 226 228 207 193 208 213 204
178 183 184 183 179 175 174 167 166 171 169 164 159 148 133 115 96 75 66 60 44 31 50 74 81 82 83 78 82 146 219 225 226 223 215 210 209 209 205 203 209 216 218 221 227 228 220 214 212 211 216 218 213 215 221 226 223 199 184 194 206 208
180 184 183 183 180 173 172 175 180 185 176 164 156 144 132 125 119 116 127 94 35 11 11 23 34 47 63 70 59 20 242 239 240 236 228 222 219 216 212 208 207 212 218 221 227 232 229 219 213 211 214 217 212 205 213 226 224 211 198 193 195 200
182 186 186 186 184 176 177 184 190 194 182 166 156 149 153 154 151 160 164 63 19 9 5 2 4 10 20 56 74 24 286 260 249 241 233 227 225 219 215 214 212 212 214 219 224 226 228 222 211 208 207 210 211 207 214 226 225 220 213 203 194 191
183 188 191 193 192 186 186 190 196 206 194 168 162 167 173 168 164 181 193 31 349 341 347 347 350 355 353 345 340 96 285 277 268 254 235 227 225 218 213 216 219 217 213 217 221 218 220 218 207 206 206 206 211 214 220 224 225 224 215 209 202 191
182 187 192 198 199 194 196 199 202 213 200 173 176 184 181 179 183 198 215 264 294 303 327 337 339 343 344 336 308 273 283 298 276 257 239 227 219 207 210 223 227 226 219 215 217 216 217 215 211 209 208 213 216 218 222 225 227 227 218 211 207 202
185 188 189 195 200 201 206 208 206 208 195 187 204 206 199 202 207 215 235 278 293 304 327 337 337 336 341 338 297 273 302 327 284 261 242 222 210 193 205 225 227 229 230 220 219 224 224 222 222 218 214 216 213 215 225 230 231 229 224 216 210 211
190 190 187 190 203 210 214 212 207 206 200 206 225 224 218 217 223 240 256 285 307 322 330 332 331 334 339 336 279 270 316 322 296 279 259 222 208 195 207 225 228 234 243 238 232 235 234 232 230 228 226 220 213 216 225 231 230 225 226 224 219 217
187 190 191 197 210 216 216 213 208 211 218 232 238 237 235 232 242 260 275 298 314 324 325 322 321 324 330 326 268 264 315 299 288 282 278 238 217 213 217 225 230 235 244 245 238 237 237 236 234 230 231 229 223 219 218 219 214 208 214 216 211 210
183 189 195 202 215 218 219 218 212 216 229 240 243 246 248 247 258 276 291 306 316 317 315 312 311 311 313 300 261 23 250 252 259 264 272 241 219 224 224 225 233 239 240 233 226 226 229 233 232 225 223 220 212 203 201 202 195 193 197 192 189 199
180 188 196 203 214 220 225 225 218 220 230 239 243 248 254 260 271 284 296 307 315 314 310 307 302 293 279 264 265 332 235 220 224 243 262 238 217 225 223 214 223 236 236 225 215 215 219 219 213 207 202 193 184 179 177 173 172 183 189 186 188 196
188 192 196 201 209 218 225 223 218 222 230 237 239 245 256 268 277 288 300 312 316 311 307 310 306 261 258 261 261 271 226 217 224 236 251 223 205 217 215 206 207 222 238 233 219 211 208 204 200 200 196 180 168 169 166 156 158 173 183 187 192 195
194 195 195 198 204 213 217 216 217 223 230 234 233 242 258 272 282 295 307 316 319 310 302 309 301 253 258 267 266 261 230 218 226 227 214 178 177 198 209 201 191 195 227 232 222 213 210 208 201 196 195 187 179 182 179 169 168 175 182 191 195 199
200 194 194 196 200 207 211 212 218 223 228 230 230 242 260 272 286 300 311 320 319 304 289 281 275 260 258 262 257 251 236 220 219 207 188 173 172 184 191 187 182 182 192 203 208 212 215 217 210 199 192 187 187 192 191 186 187 187 190 199 196 188
Height
3146 3147 3147 3147 3147 3147 3147 3147 3148 3149 3150 3151 3151 3152 3154 3156 3158 3160 3161 3162 3162 3163 3164 3165 3165 3166 3167 3168 3168 3168 3168 3169 3169 3169 3169 3169 3170 3170 3171 3172 3172 3174 3175 3176 3178 3179 3180 3181 3182 3182 3183 3184 3185 3185 3186 3188 3188 3190 3190 3191 3192 3192
3146 3146 3146 3145 3146 3146 3146 3146 3147 3149 3150 3150 3151 3153 3155 3157 3159 3160 3161 3162 3162 3163 3165 3165 3165 3166 3168 3169 3169 3169 3169 3169 3169 3169 3169 3169 3169 3170 3170 3171 3171 3172 3174 3175 3177 3178 3179 3180 3180 3181 3182 3183 3184 3184 3185 3187 3188 3189 3190 3190 3191 3191
3146 3145 3145 3145 3145 3145 3145 3145 3147 3148 3149 3150 3152 3154 3155 3157 3158 3159 3160 3161 3162 3164 3165 3165 3166 3167 3168 3168 3169 3169 3169 3169 3169 3169 3168 3168 3169 3169 3169 3170 3171 3172 3173 3174 3175 3176 3177 3178 3179 3180 3180 3181 3182 3183 3184 3186 3187 3189 3189 3189 3189 3190
3146 3144 3144 3144 3145 3144 3144 3145 3146 3147 3148 3150 3152 3153 3154 3156 3157 3159 3160 3161 3162 3163 3163 3164 3166 3167 3167 3167 3167 3168 3168 3168 3168 3167 3167 3167 3168 3168 3168 3169 3170 3171 3172 3172 3173 3174 3175 3177 3177 3178 3179 3180 3182 3181 3182 3184 3186 3188 3188 3188 3188 3189
3145 3144 3144 3144 3144 3143 3143 3144 3145 3147 3148 3150 3151 3152 3154 3156 3158 3159 3160 3161 3161 3162 3162 3162 3164 3164 3165 3165 3166 3166 3167 3167 3167 3166 3166 3166 3166 3167 3167 3168 3169 3170 3170 3171 3172 3173 3174 3175 3175 3176 3177 3180 3181 3179 3180 3183 3185 3186 3187 3187 3187 3188
3144 3143 3143 3143 3143 3142 3142 3144 3147 3148 3149 3150 3152 3153 3154 3156 3158 3159 3159 3160 3160 3160 3160 3160 3161 3162 3163 3163 3164 3165 3165 3165 3166 3166 3166 3166 3166 3166 3166 3167 3168 3169 3169 3170 3170 3171 3172 3173 3174 3175 3177 3178 3178 3177 3178 3181 3183 3184 3185 3185 3186 3187
3143 3142 3142 3142 3142 3142 3143 3146 3148 3148 3149 3151 3153 3154 3155 3156 3157 3158 3159 3158 3158 3158 3159 3159 3160 3160 3161 3162 3162 3163 3164 3164 3165 3165 3165 3166 3166 3166 3165 3166 3167 3168 3169 3169 3169 3170 3171 3172 3173 3174 3175 3175 3175 3176 3179 3180 3182 3183 3183 3184 3185 3186
3142 3142 3141 3141 3140 3142 3144 3146 3147 3148 3149 3151 3153 3153 3154 3155 3157 3157 3157 3157 3157 3158 3158 3159 3159 3160 3160 3161 3162 3162 3163 3164 3164 3164 3165 3165 3165 3165 3165 3166 3167 3168 3168 3168 3169 3169 3170 3170 3171 3172 3172 3173 3175 3176 3178 3179 3180 3182 3182 3183 3184 3184
3141 3141 3140 3139 3140 3143 3145 3146 3146 3147 3149 3151 3152 3152 3153 3154 3156 3156 3156 3156 3157 3157 3158 3158 3159 3160 3160 3161 3161 3162 3162 3163 3163 3163 3164 3164 3164 3164 3165 3166 3167 3167 3168 3167 3167 3168 3169 3169 3169 3169 3170 3172 3173 3172 3174 3178 3180 3181 3182 3182 3183 3183
3139 3140 3139 3139 3141 3144 3145 3145 3146 3147 3148 3150 3151 3152 3152 3153 3155 3155 3155 3155 3156 3157 3157 3158 3159 3159 3160 3160 3161 3161 3162 3162 3162 3162 3163 3163 3163 3164 3165 3165 3166 3166 3167 3166 3166 3167 3167 3167 3165 3167 3170 3171 3170 3171 3176 3180 3180 3180 3180 3181 3181 3182
3139 3139 3139 3139 3141 3143 3144 3144 3146 3147 3148 3149 3150 3151 3152 3153 3153 3154 3154 3155 3155 3156 3157 3158 3159 3159 3159 3159 3160 3160 3161 3161 3161 3161 3162 3162 3163 3164 3164 3164 3165 3165 3166 3165 3166 3166 3165 3165 3164 3167 3171 3172 3173 3176 3178 3179 3178 3178 3179 3179 3180 3179
3138 3138 3138 3139 3141 3143 3144 3145 3145 3146 3147 3149 3150 3151 3152 3153 3153 3153 3154 3155 3155 3156 3157 3158 3159 3159 3159 3159 3159 3159 3160 3160 3160 3160 3161 3162 3162 3163 3163 3164 3164 3164 3165 3165 3165 3165 3164 3165 3164 3167 3171 3173 3174 3175 3175 3175 3175 3176 3177 3177 3177 3177
3136 3136 3137 3140 3142 3144 3145 3146 3146 3147 3148 3149 3150 3151 3152 3152 3153 3153 3154 3154 3155 3156 3157 3158 3158 3158 3158 3158 3158 3158 3159 3159 3159 3160 3160 3161 3162 3162 3162 3163 3164 3164 3164 3164 3164 3164 3164 3165 3165 3166 3169 3172 3173 3173 3173 3173 3174 3175 3175 3174 3174 3175
3136 3136 3138 3140 3143 3145 3145 3146 3147 3147 3148 3150 3150 3151 3151 3152 3152 3153 3153 3153 3154 3155 3156 3157 3157 3157 3157 3157 3157 3157 3157 3158 3158 3159 3159 3160 3161 3161 3162 3162 3163 3163 3163 3164 3164 3164 3164 3165 3165 3165 3167 3171 3173 3172 3171 3172 3173 3174 3173 3173 3174 3175
3135 3135 3138 3141 3144 3145 3145 3146 3147 3148 3149 3150 3150 3151 3151 3152 3152 3152 3153 3153 3153 3154 3155 3156 3156 3156 3156 3156 3156 3156 3157 3157 3158 3158 3159 3159 3159 3160 3161 3162 3162 3162 3162 3163 3163 3164 3165 3165 3165 3165 3167 3169 3171 3171 3171 3171 3172 3172 3172 3173 3174 3175
3135 3135 3138 3141 3143 3145 3145 3146 3147 3148 3149 3150 3151 3151 3152 3152 3152 3152 3152 3153 3153 3154 3154 3155 3155 3155 3155 3155 3156 3156 3156 3156 3157 3158 3158 3158 3158 3159 3160 3161 3161 3161 3162 3162 3163 3164 3165 3165 3164 3164 3166 3168 3169 3169 3170 3171 3171 3171 3172 3172 3174 3175
3136 3137 3139 3141 3144 3145 3146 3147 3148 3149 3150 3150 3151 3151 3152 3152 3152 3152 3153 3153 3153 3153 3154 3154 3154 3154 3154 3155 3155 3155 3156 3156 3157 3158 3158 3158 3158 3159 3159 3160 3160 3161 3161 3162 3163 3164 3165 3165 3163 3163 3165 3167 3168 3169 3169 3169 3169 3170 3171 3172 3173 3174
3138 3138 3139 3142 3144 3146 3146 3147 3148 3150 3150 3150 3151 3151 3152 3152 3153 3153 3153 3153 3153 3154 3154 3153 3153 3153 3154 3155 3155 3156 3156 3156 3157 3158 3158 3158 3158 3158 3159 3159 3160 3160 3160 3161 3162 3164 3165 3165 3163 3162 3164 3165 3167 3168 3168 3169 3169 3170 3171 3172 3173 3173
3139 3140 3140 3142 3144 3145 3146 3147 3148 3149 3150 3150 3151 3151 3152 3152 3153 3153 3153 3153 3154 3154 3154 3153 3153 3153 3154 3154 3155 3155 3155 3155 3156 3157 3157 3158 3158 3158 3158 3159 3159 3160 3160 3161 3162 3163 3165 3165 3163 3162 3163 3164 3165 3167 3168 3169 3170 3171 3172 3172 3172 3172
3139 3140 3141 3142 3143 3144 3145 3146 3147 3149 3149 3150 3151 3151 3152 3152 3153 3153 3153 3153 3154 3154 3154 3154 3153 3153 3153 3153 3153 3154 3154 3154 3155 3156 3157 3157 3158 3158 3158 3159 3159 3159 3159 3160 3161 3162 3163 3164 3162 3162 3162 3162 3163 3166 3167 3168 3170 3172 3173 3171 3170 3171
3139 3140 3141 3142 3143 3144 3145 3146 3147 3148 3149 3150 3151 3151 3151 3152 3152 3152 3153 3153 3154 3154 3154 3153 3153 3152 3152 3152 3152 3153 3153 3153 3154 3155 3155 3156 3157 3157 3158 3159 3159 3158 3159 3160 3161 3162 3163 3162 3162 3162 3162 3161 3162 3164 3165 3167 3169 3171 3171 3169 3169 3171
3138 3139 3140 3142 3143 3144 3145 3146 3147 3148 3149 3150 3150 3151 3151 3152 3152 3153 3153 3154 3154 3154 3154 3153 3153 3152 3152 3152 3152 3152 3152 3153 3153 3153 3154 3155 3155 3156 3157 3158 3158 3158 3158 3159 3160 3162 3162 3162 3161 3161 3162 3161 3162 3163 3164 3166 3167 3169 3170 3169 3169 3169
3136 3137 3138 3140 3142 3144 3146 3147 3147 3148 3149 3150 3150 3150 3151 3151 3152 3153 3153 3153 3153 3153 3153 3153 3153 3152 3152 3152 3152 3152 3152 3152 3152 3152 3152 3153 3154 3155 3155 3156 3157 3157 3157 3158 3159 3161 3162 3162 3161 3160 3161 3162 3161 3161 3163 3165 3166 3169 3169 3167 3166 3167
3134 3136 3137 3139 3142 3144 3146 3146 3147 3148 3149 3150 3150 3150 3150 3151 3151 3151 3151 3151 3151 3151 3152 3152 3152 3152 3152 3152 3152 3151 3150 3150 3150 3151 3151 3151 3152 3153 3154 3155 3155 3156 3157 3157 3158 3159 3161 3161 3160 3159 3160 3161 3161 3161 3162 3163 3165 3167 3168 3166 3165 3166
3134 3135 3137 3139 3141 3144 3145 3146 3147 3148 3148 3149 3149 3149 3149 3149 3149 3149 3149 3149 3149 3149 3150 3151 3152 3152 3152 3151 3151 3151 3150 3149 3149 3149 3149 3150 3150 3151 3152 3153 3154 3155 3156 3156 3157 3158 3159 3160 3159 3159 3159 3159 3160 3161 3161 3161 3162 3165 3166 3166 3165 3166
3134 3136 3138 3140 3141 3143 3144 3145 3146 3147 3147 3147 3148 3148 3147 3147 3147 3148 3148 3148 3148 3148 3148 3149 3150 3151 3151 3151 3151 3150 3149 3148 3148 3148 3148 3148 3149 3150 3151 3152 3153 3154 3155 3155 3156 3156 3157 3158 3158 3158 3158 3158 3159 3159 3159 3159 3160 3162 3164 3165 3165 3166
3134 3136 3138 3139 3141 3142 3143 3145 3146 3146 3147 3146 3146 3146 3146 3146 3146 3147 3147 3147 3147 3147 3148 3148 3149 3150 3150 3151 3150 3150 3149 3148 3147 3147 3147 3147 3148 3149 3150 3151 3152 3153 3153 3154 3155 3155 3155 3156 3157 3157 3158 3158 3157 3158 3159 3158 3159 3161 3163 3164 3165 3166
3135 3136 3137 3138 3140 3141 3143 3144 3145 3146 3146 3146 3146 3145 3145 3146 3146 3146 3146 3147 3147 3147 3148 3148 3149 3149 3149 3149 3149 3149 3149 3148 3147 3147 3147 3147 3147 3147 3148 3149 3151 3152 3153 3153 3154 3155 3154 3155 3156 3157 3157 3157 3157 3157 3158 3158 3158 3160 3162 3163 3165 3166
3134 3135 3136 3137 3139 3140 3142 3144 3145 3146 3146 3145 3145 3145 3145 3146 3146 3146 3146 3146 3147 3147 3148 3148 3148 3148 3148 3147 3148 3148 3148 3148 3147 3146 3146 3146 3146 3147 3148 3149 3150 3151 3153 3153 3153 3154 3154 3154 3155 3156 3157 3157 3157 3157 3158 3158 3158 3159 3161 3162 3164 3165
3133 3134 3134 3136 3137 3139 3141 3142 3144 3144 3145 3145 3146 3145 3145 3145 3145 3145 3145 3145 3146 3146 3146 3146 3146 3146 3146 3146 3146 3145 3146 3146 3146 3146 3145 3145 3146 3147 3147 3148 3149 3150 3152 3153 3153 3153 3153 3153 3154 3155 3156 3156 3157 3157 3157 3158 3158 3159 3160 3161 3162 3163
3132 3132 3133 3134 3135 3137 3138 3140 3142 3143 3145 3145 3146 3145 3145 3145 3145 3144 3144 3144 3144 3144 3144 3144 3144 3144 3144 3144 3144 3144 3144 3144 3145 3145 3145 3145 3145 3146 3147 3147 3148 3149 3150 3152 3153 3152 3152 3153 3154 3155 3155 3156 3157 3157 3157 3157 3158 3159 3160 3160 3161 3162
3130 3131 3132 3133 3134 3135 3136 3138 3140 3142 3144 3145 3145 3145 3145 3145 3144 3144 3143 3143 3143 3143 3143 3142 3142 3143 3143 3143 3144 3144 3143 3143 3143 3144 3144 3144 3145 3146 3146 3147 3148 3149 3149 3151 3152 3152 3152 3153 3153 3154 3154 3155 3156 3156 3157 3157 3158 3159 3159 3160 3161 3161
3129 3131 3132 3133 3133 3134 3135 3138 3140 3142 3143 3145 3145 3145 3144 3144 3144 3144 3143 3143 3143 3143 3142 3141 3141 3141 3142 3142 3143 3143 3143 3142 3142 3143 3143 3144 3145 3145 3146 3147 3148 3148 3149 3150 3151 3151 3152 3152 3153 3153 3154 3155 3155 3155 3156 3156 3157 3158 3159 3160 3161 3161
3129 3131 3132 3132 3133 3134 3135 3137 3139 3141 3143 3144 3144 3144 3144 3144 3144 3143 3143 3143 3143 3142 3141 3140 3140 3140 3141 3141 3142 3142 3142 3142 3142 3142 3142 3143 3145 3145 3146 3147 3148 3148 3148 3149 3150 3151 3151 3152 3152 3153 3153 3154 3154 3155 3155 3156 3156 3157 3158 3160 3161 3160
3128 3130 3131 3132 3133 3134 3135 3136 3138 3140 3141 3142 3142 3142 3143 3143 3143 3143 3142 3142 3142 3141 3140 3139 3139 3139 3140 3140 3141 3142 3142 3141 3141 3141 3142 3143 3144 3145 3146 3147 3148 3148 3148 3149 3149 3150 3151 3151 3152 3153 3153 3153 3154 3155 3155 3156 3156 3157 3158 3160 3160 3160
3127 3129 3130 3131 3132 3133 3134 3135 3137 3139 3140 3141 3141 3141 3141 3142 3142 3142 3142 3142 3141 3140 3139 3139 3139 3139 3139 3140 3140 3141 3141 3141 3141 3141 3142 3142 3144 3145 3146 3147 3148 3148 3148 3148 3148 3149 3150 3150 3151 3152 3153 3154 3154 3155 3156 3156 3156 3157 3157 3158 3159 3159
3125 3127 3128 3130 3131 3132 3133 3134 3136 3137 3138 3139 3139 3140 3140 3141 3141 3141 3141 3141 3141 3140 3139 3139 3138 3138 3139 3139 3140 3140 3140 3141 3141 3141 3141 3142 3143 3144 3145 3147 3148 3148 3148 3148 3148 3148 3149 3150 3151 3152 3153 3154 3155 3155 3156 3156 3156 3156 3157 3158 3158 3158